Montague Island Observation History
Time Wind Speed Temp Pressure Rel. Hum Rain
03/06:30am SW 31-43 kts 14.1°c 1018.5 hPa 56% 0.0mm
03/06:18am SW 30-41 kts 14.2°c 1018.1 hPa 59% 0.0mm
03/06:00am SW 31-39 kts 14.2°c 1017.4 hPa 56% 0.0mm
03/05:30am SW 32-40 kts 14.6°c 1016.8 hPa 57% 0.0mm
03/05:09am SW 29-39 kts 14.7°c 1016.1 hPa 56% 0.0mm
03/05:01am SSW 21-33 kts 15.1°c 1016.3 hPa 56% 0.0mm
03/05:00am SSW 20-27 kts 15.2°c 1016.4 hPa 57% 0.0mm
03/04:55am SW 16-24 kts 15.2°c 1016.2 hPa 56% 0.0mm
03/04:30am WSW 7-15 kts 13.6°c 1015.9 hPa 56% 0.0mm
03/04:00am W 14-18 kts 14.0°c 1015.2 hPa 52% 0.0mm
03/03:30am W 10-13 kts 12.9°c 1014.9 hPa 56% 0.0mm
03/03:00am WNW 13-18 kts 13.0°c 1014.8 hPa 55% 0.0mm
03/02:30am WNW 15-18 kts 13.6°c 1015.0 hPa 54% 0.0mm
03/02:00am WNW 14-20 kts 13.6°c 1015.3 hPa 58% 0.0mm
03/01:30am WNW 13-17 kts 13.2°c 1015.3 hPa 57% 0.0mm
03/01:00am WNW 14-18 kts 13.0°c 1015.0 hPa 58% 0.0mm
03/12:30am WNW 16-20 kts 13.0°c 1014.9 hPa 56% 0.0mm
03/12:00am WNW 13-17 kts 12.7°c 1015.1 hPa 60% 0.0mm
Time Wind Speed Temp Pressure Rel. Hum Rain
02/11:30pm W 14-17 kts 12.6°c 1015.3 hPa 59% 0.0mm
02/11:00pm W 13-16 kts 12.8°c 1015.2 hPa 58% 0.0mm
02/10:30pm W 16-19 kts 12.9°c 1014.8 hPa 61% 0.0mm
02/10:00pm WNW 13-15 kts 13.5°c 1015.0 hPa 56% 0.0mm
02/09:30pm NW 6-9 kts 13.6°c 1015.4 hPa 66% 0.0mm
02/09:00pm NW 7-10 kts 13.7°c 1015.6 hPa 68% 0.0mm
02/08:30pm WNW 9-12 kts 13.9°c 1015.4 hPa 68% 0.0mm
02/08:00pm NW 8-12 kts 14.1°c 1015.1 hPa 67% 0.0mm
02/07:30pm WNW 7-11 kts 14.3°c 1014.7 hPa 64% 0.0mm
02/07:00pm WSW 7-8 kts 14.3°c 1014.7 hPa 65% 0.0mm
02/06:30pm SW 8-10 kts 14.9°c 1014.6 hPa 60% 0.0mm
02/06:00pm SSW 11-13 kts 15.2°c 1014.5 hPa 57% 0.0mm
02/05:30pm SSW 13-16 kts 15.2°c 1014.6 hPa 58% 0.0mm
02/05:00pm SSW 14-17 kts 15.2°c 1014.2 hPa 55% 0.0mm
02/04:30pm SSW 13-17 kts 15.3°c 1014.1 hPa 56% 0.0mm
02/04:00pm SSW 12-15 kts 15.5°c 1013.9 hPa 51% 0.0mm
02/03:30pm SSW 10-13 kts 15.8°c 1013.6 hPa 46% 0.0mm
02/03:00pm SSW 11-14 kts 16.1°c 1013.7 hPa 48% 0.0mm
02/02:30pm SSW 14-16 kts 16.0°c 1013.5 hPa 43% 0.0mm
02/02:00pm SSW 11-14 kts 16.1°c 1013.6 hPa 47% 0.0mm
02/01:30pm SSW 12-15 kts 15.9°c 1013.5 hPa 48% 0.0mm
02/01:00pm SSW 13-16 kts 15.6°c 1013.6 hPa 47% 0.0mm
02/12:30pm SSW 15-20 kts 15.4°c 1013.7 hPa 51% 0.0mm
02/12:00pm SW 17-21 kts 14.8°c 1014.0 hPa 49% 0.0mm
02/11:30am SW 17-24 kts 14.4°c 1014.2 hPa 51% 0.0mm
02/11:00am SW 16-22 kts 14.2°c 1014.3 hPa 53% 0.0mm
02/10:30am SW 20-25 kts 14.0°c 1014.4 hPa 50% 0.0mm
02/10:00am SW 23-29 kts 13.8°c 1014.1 hPa 54% 0.0mm
02/09:30am SW 23-32 kts 13.5°c 1014.0 hPa 54% 0.0mm
02/09:29am SW 22-32 kts 13.5°c 1014.0 hPa 56% 0.0mm
02/09:00am SW 22-28 kts 12.9°c 1014.0 hPa 56% 0.0mm
02/08:30am SW 23-29 kts 12.6°c 1013.6 hPa 60% 0.0mm
02/08:00am SW 22-29 kts 12.5°c 1013.4 hPa 60% 0.0mm
02/07:30am SW 21-29 kts 12.4°c 1013.1 hPa 62% 0.0mm
02/07:00am SW 22-28 kts 12.6°c 1012.8 hPa 63% 0.0mm
02/06:38am SW 18-28 kts 12.7°c 1012.5 hPa 65% 0.0mm
02/06:30am SW 20-26 kts 12.7°c 1012.5 hPa 63% 0.0mm
02/06:00am SW 20-26 kts 12.8°c 1012.0 hPa 66% 0.0mm
02/05:30am SW 21-27 kts 12.8°c 1011.6 hPa 64% 0.0mm
02/05:04am SW 19-29 kts 12.8°c 1011.2 hPa 63% 0.0mm
02/05:00am SW 19-25 kts 12.9°c 1011.2 hPa 63% 0.0mm
02/04:30am SW 21-29 kts 12.9°c 1010.6 hPa 60% 0.0mm
02/04:00am SW 19-26 kts 13.2°c 1010.4 hPa 57% 0.0mm
02/03:30am SW 18-21 kts 13.1°c 1010.5 hPa 54% 0.0mm
02/03:00am SW 16-21 kts 13.2°c 1010.2 hPa 52% 0.0mm
02/02:30am SW 14-17 kts 13.0°c 1010.0 hPa 53% 0.0mm
02/02:00am WSW 15-18 kts 13.1°c 1009.9 hPa 56% 0.0mm
02/01:30am SW 17-20 kts 13.0°c 1009.8 hPa 58% 0.0mm
02/01:00am SW 17-22 kts 13.5°c 1009.8 hPa 57% 0.0mm
02/12:30am SW 16-20 kts 13.6°c 1009.7 hPa 56% 0.0mm
02/12:00am SW 14-17 kts 13.5°c 1009.8 hPa 54% 0.0mm
Time Wind Speed Temp Pressure Rel. Hum Rain
01/11:30pm WSW 17-21 kts 13.6°c 1009.4 hPa 51% 0.0mm
01/11:00pm WSW 15-19 kts 13.8°c 1009.3 hPa 50% 0.0mm
01/10:30pm WSW 16-20 kts 13.8°c 1008.9 hPa 51% 0.0mm
01/10:00pm SW 14-17 kts 13.8°c 1008.7 hPa 51% 0.0mm
01/09:30pm W 12-15 kts 13.6°c 1008.7 hPa 49% 0.0mm
01/09:00pm W 9-12 kts 13.8°c 1008.5 hPa 48% 0.0mm
01/08:30pm W 12-15 kts 13.9°c 1008.1 hPa 48% 0.0mm
01/08:00pm W 15-19 kts 14.1°c 1007.5 hPa 47% 0.0mm
01/07:30pm WNW 13-18 kts 14.7°c 1007.2 hPa 45% 0.0mm
01/07:00pm WNW 15-19 kts 15.0°c 1007.1 hPa 46% 0.0mm
01/06:30pm W 20-25 kts 15.3°c 1006.5 hPa 47% 0.0mm
01/06:00pm W 15-19 kts 15.3°c 1006.3 hPa 50% 0.0mm
01/05:30pm W 15-20 kts 15.7°c 1005.6 hPa 50% 0.0mm
01/05:00pm NW 9-12 kts 16.1°c 1005.0 hPa 52% 0.0mm
01/04:30pm W 10-14 kts 16.1°c 1004.7 hPa 51% 0.0mm
01/04:07pm W 13-20 kts 16.7°c 1004.7 hPa 50% 0.0mm
01/04:00pm WSW 6-10 kts 16.9°c 1004.7 hPa 60% 0.0mm
01/03:30pm WNW 8-12 kts 17.6°c 1004.4 hPa 50% 0.0mm
01/03:00pm NW 13-18 kts 17.9°c 1004.0 hPa 47% 0.0mm
01/02:30pm NW 15-21 kts 17.4°c 1003.5 hPa 58% 0.0mm
01/02:00pm NNW 17-21 kts 17.8°c 1003.3 hPa 52% 0.0mm
01/01:30pm N 13-18 kts 17.8°c 1003.5 hPa 54% 0.0mm
01/01:00pm NNE 16-20 kts 17.9°c 1003.8 hPa 60% 0.0mm
01/12:30pm NNE 17-22 kts 17.1°c 1004.0 hPa 60% 0.0mm
01/12:00pm N 19-22 kts 17.3°c 1004.4 hPa 57% 0.0mm
01/11:30am N 19-23 kts 17.2°c 1004.6 hPa 60% 0.0mm
01/11:00am N 16-23 kts 17.8°c 1005.1 hPa 62% 0.0mm
01/10:30am N 21-26 kts 16.6°c 1005.5 hPa 66% 0.0mm
01/10:00am N 20-24 kts 16.1°c 1005.7 hPa 65% 0.0mm
01/09:30am N 17-23 kts 16.3°c 1005.9 hPa 62% 0.0mm
01/09:00am N 17-23 kts 16.5°c 1006.2 hPa 66% 0.0mm
01/08:30am N 17-23 kts 16.4°c 1006.5 hPa 67% 0.0mm
01/08:00am N 20-24 kts 16.4°c 1006.4 hPa 65% 0.0mm
01/07:30am N 17-22 kts 16.3°c 1006.5 hPa 69% 0.0mm
01/07:00am N 16-21 kts 16.3°c 1006.5 hPa 70% 0.0mm
01/06:30am N 17-21 kts 16.3°c 1006.5 hPa 67% 0.0mm
01/06:00am N 16-21 kts 16.3°c 1006.7 hPa 68% 0.0mm
01/05:30am N 19-23 kts 16.5°c 1006.7 hPa 62% 0.0mm
01/05:00am N 18-23 kts 16.6°c 1006.8 hPa 65% 0.0mm
01/04:30am N 17-23 kts 16.6°c 1007.0 hPa 67% 0.0mm
01/04:00am N 17-25 kts 16.7°c 1007.2 hPa 65% 0.0mm
01/03:30am N 19-26 kts 16.7°c 1007.3 hPa 66% 0.0mm
01/03:00am N 17-23 kts 16.8°c 1008.0 hPa 64% 0.0mm
01/02:30am N 17-24 kts 16.8°c 1008.4 hPa 66% 0.0mm
01/02:00am N 22-27 kts 16.9°c 1008.7 hPa 64% 0.0mm
01/01:30am N 21-25 kts 16.8°c 1008.9 hPa 68% 0.0mm
01/01:00am N 16-21 kts 16.7°c 1009.5 hPa 69% 0.0mm
01/12:30am N 17-23 kts 16.7°c 1010.0 hPa 70% 0.0mm
01/12:00am N 18-22 kts 16.7°c 1010.4 hPa 66% 0.0mm